#timestamp,LO_Frequency,Hit,StdDev 
1580454015.3,286047005.3,N
1580454035.1,286047004.4,N
1580454055.9,286047003.9,N
1580454075.7,286047003.2,N
1580454095.5,286047005.6,N
1580454115.4,286047003.8,N
1580454135.2,286046999.7,N
1580454155.1,286047005.2,N
1580454156.0,286047005.2,N
1580454175.8,286047003.0,N
1580454195.6,286047004.3,N
1580454215.5,286047003.1,N
1580454235.3,286047006.0,N
1580454255.1,286047007.6,N
1580454275.9,286047009.2,N
1580454295.7,286047004.6,N
1580454315.6,286047002.9,N
1580454335.4,286047003.0,N
1580454355.2,286047003.0,N
1580454375.1,286047003.9,N
1580454376.0,286047003.9,N
1580454395.8,286047004.4,N
1580454415.7,286047005.6,N
1580454435.5,286047007.4,N
1580454455.3,286047009.4,N
1580454475.2,286047006.5,N
1580454495.9,286047009.9,N
1580454515.7,286047004.6,N
1580454535.6,286047003.8,N
1580454555.4,286047005.4,N
1580454575.3,286047004.2,N
1580454595.1,286047003.9,N
1580454596.0,286047003.9,N
1580454615.8,286047009.2,Y
1580454635.7,286047003.9,P
1580454655.5,286047004.4,P
1580454675.3,286047003.9,P
1580454695.2,286047002.2,Y
1580454715.0,286046995.2,P
1580454715.9,286046995.2,N
1580454735.8,286046995.6,N
1580454755.6,286046994.9,N
1580454775.4,286047000.4,N
1580454795.3,286047002.6,N
1580454815.1,286046996.6,N
1580454865.9,286046996.9,E
1580454875.8,286046999.1,N
1580454895.6,286046999.7,P
1580454915.5,286046998.3,P
1580454935.3,286046997.3,Y
1580454955.1,286047001.2,P
1580454975.9,286047000.4,N
1580454995.7,286047000.5,N
1580455015.5,286047000.1,N
1580455035.4,286046998.8,N
1580455055.2,286046998.1,N
1580455075.1,286047001.2,N
1580455076.0,286047001.2,N
1580455095.8,286047000.7,N
1580455115.6,286047000.3,N
1580455135.5,286047002.2,N
1580455155.3,286047002.1,N
1580455175.2,286046998.5,N
1580455195.9,286046999.5,N
1580455215.7,286047002.1,N
1580455235.6,286047002.6,N
1580455255.4,286047004.3,Y
1580455275.2,286047003.4,P
1580455295.1,286047002.0,N
1580455296.0,286047002.0,N
1580455315.8,286046999.1,N
1580455335.7,286046995.0,Y
1580455355.5,286046994.6,P
1580455375.3,286046996.4,N
1580455395.2,286046995.5,N
1580455415.0,286046996.2,N
1580455415.9,286046996.2,N
1580455435.8,286046999.1,N
1580455455.6,286047001.2,N
1580455475.4,286047000.6,N
1580455495.3,286047000.9,N
1580455515.1,286046998.6,N
1580455535.8,286046997.5,N
1580455555.7,286046996.7,N
1580455575.5,286046999.0,N
1580455595.4,286047000.4,N
1580455615.2,286046999.0,N
1580455635.0,286046997.2,N
1580455635.9,286046997.2,N
1580455655.8,286046996.7,N
1580455675.6,286046995.2,N
1580455695.4,286046997.1,N
1580455715.3,286046998.7,N
1580455735.1,286046999.0,N
1580455755.9,286046999.4,N
1580455775.7,286046998.3,N
1580455795.5,286047001.1,N
1580455815.4,286046999.3,N
1580455835.2,286046997.8,N
1580455855.0,286046995.4,N
1580455855.9,286046995.4,N
1580455875.8,286046997.1,N
1580455895.6,286046999.5,N
1580455915.5,286047001.1,N
1580455935.3,286046996.9,N
1580455955.1,286046995.0,N
1580455975.9,286046999.0,N
1580455995.7,286046999.6,N
1580456015.6,286046996.6,N
1580456035.4,286046999.4,N
1580456055.2,286046995.3,N
1580456075.1,286046995.5,N
1580456076.0,286046995.5,N
1580456095.8,286046995.1,N
1580456115.6,286046995.1,N
1580456135.5,286046994.2,Y
1580456155.3,286046997.8,P
1580456175.2,286046996.0,P
1580456195.9,286046993.3,P
1580456215.7,286046997.4,N
1580456235.6,286046993.5,Y
1580456255.4,286046998.8,P
1580456275.2,286047002.8,N
1580456295.1,286046998.4,N
1580456296.0,286047011.9,Y
1580456315.8,286046996.6,P
1580456335.7,286046999.0,N
1580456355.5,286047001.1,N
1580456375.3,286047000.7,N
1580456395.2,286046998.6,N
1580456415.0,286047000.6,N
1580456415.9,286047000.6,N
1580456435.8,286047000.1,N
1580456455.6,286046999.4,N
1580456475.4,286047002.3,N
1580456495.3,286047002.6,N
1580456515.1,286046999.8,N
1580456535.8,286046999.1,N
1580456555.7,286046998.0,N
1580456575.5,286046997.6,N
1580456595.4,286046997.7,N
1580456615.2,286046997.1,N
1580456635.0,286046999.5,N
1580456635.9,286046999.5,N
1580456655.8,286046998.5,N
1580456675.6,286046996.5,N
1580456695.5,286046995.0,Y
1580456715.3,286046995.9,P
1580456735.1,286046995.6,N
1580456755.9,286046997.9,N
1580456775.7,286046996.8,N
1580456795.5,286046995.3,Y
1580456815.4,286046998.1,P
1580456835.2,286046998.3,P
1580456855.1,286046998.7,N
1580456856.0,286046998.7,N
1580456875.8,286046997.0,Y
1580456895.6,286046994.9,P
1580456915.5,286046994.7,P
1580456935.3,286046990.1,P
1580456955.2,286046991.3,Y
1580456975.9,286046992.1,P
1580456995.7,286046992.8,P
1580457015.6,286046989.8,P
1580457035.4,286046987.9,Y
1580457055.2,286046993.5,P
1580457075.1,286046994.8,P
1580457076.0,286046994.8,P
1580457095.8,286046992.2,Y
1580457115.7,286046995.4,P
1580457135.5,286046993.5,P
1580457155.3,286046999.5,N
1580457175.2,286046996.9,N
1580457195.0,286046999.1,N
1580457195.9,286046999.1,N
1580457215.8,286046996.7,N
1580457235.6,286046998.8,N
1580457255.4,286046997.0,N
1580457275.3,286046998.2,N
1580457295.1,286046997.5,N
1580457315.8,286046998.7,N
1580457335.7,286046999.8,N
1580457355.5,286046999.8,N
1580457375.4,286047003.7,N
1580457395.2,286047004.6,N
1580457415.0,286047004.9,N
1580457415.9,286047004.9,N
1580457435.8,286047007.6,N
1580457455.6,286047005.5,N
1580457475.4,286047003.4,N
1580457495.3,286047001.7,N
1580457515.1,286047002.0,N
1580457535.9,286047002.0,N
1580457555.7,286047005.9,N
1580457575.5,286047001.9,N
1580457595.4,286047003.8,N
